Regional Weather Roundup
Issued by NWS

Home | Current Version | Previous Version | Graphics & Text | Print | Product List | Glossary On
Versions: 1 2 3 4 5 6 7 8 9 10 11 12 13 14 15 16 17 18 19 20 21 22 23 24 25 26 27 28 29 30 31 32 33 34 35 36 37 38 39 40 41 42 43 44 45 46 47 48 49 50
313
ASUS43 KFSD 241102
RWRSD

WEATHER ROUNDUP FOR SOUTH DAKOTA
NATIONAL WEATHER SERVICE SIOUX FALLS SD
600 AM CDT TUE OCT 24 2017

NOTE: "FAIR" INDICATES FEW OR NO CLOUDS BELOW 12,000 FEET WITH NO
SIGNIFICANT WEATHER AND/OR OBSTRUCTIONS TO VISIBILITY.


SDZ001>005-009-010-012>017-241200-
NORTHWEST AND NORTH CENTRAL SOUTH DAKOTA

CITY           SKY/WX    TMP DP  RH WIND       PRES   REMARKS
BUFFALO          N/A     32  23  69 NW13      30.35S WCI  22
FAITH            N/A     35  26  69 NW14      30.37S WCI  26
MOBRIDGE       CLEAR     40  31  70 NW14      30.28S
$$

SDZ012>016-024>037-041>051-057-063-072>074-241200-
SOUTHWEST AND SOUTH CENTRAL SOUTH DAKOTA

CITY           SKY/WX    TMP DP  RH WIND       PRES   REMARKS
RAPID CTY ARPT CLEAR     35  21  56 NW13      30.43F WCI  26
PIERRE         CLEAR     38  32  79 NW12      30.32R
CUSTER         CLEAR     34  14  43 VRB6      30.42F WCI  29
ELLSWORTH AFB  CLEAR     39  21  49 NW14      30.42F
PHILIP         CLEAR     38  27  64 NW15      30.38R
PINE RIDGE     CLEAR     29  21  72 SW6       30.45S WCI  23
SPEARFISH      FAIR      39  19  45 W14       30.46F
WINNER         FAIR      40  28  62 W17G23    30.31S
$$

SDZ004>011-016>023-039-040-241200-
NORTHEAST SOUTH DAKOTA

CITY           SKY/WX    TMP DP  RH WIND       PRES   REMARKS
ABERDEEN       CLEAR     34  31  88 NW12      30.23R WCI  25
WATERTOWN      CLEAR     33  29  85 NW17      30.12R WCI  22
BROOKINGS      CLEAR     33  28  81 N21       30.10S WCI  21
SISSETON         N/A     33  29  85 NW20      30.14R WCI  21
$$

SDZ017-020-022-023-036>040-048>070-241200-
SOUTHEAST SOUTH DAKOTA

CITY           SKY/WX    TMP DP  RH WIND       PRES   REMARKS
SIOUX FALLS    CLEAR     38  27  64 N24G33    30.11R
HURON          PTCLDY    36  31  82 NW15      30.21R
CHAMBERLAIN    CLEAR     42  32  69 W15       30.28F
MITCHELL       PTCLDY    39  30  70 NW20      30.22R
YANKTON        CLEAR     40  29  64 NW22G30   30.16R
$$

ABBREVIATIONS USED IN REMARKS
   TC - TEMPERATURE IN CELSIUS
  WCI - WIND CHILL INDEX
   HX - HEAT INDEX
  VSB - VISIBILITY





USA.gov is the U.S. government's official web portal to all federal, state and local government web resources and services.